WXM80 ListenWXM80 Stop

You find our weather info also at:

UK Metoffice

WeatherCloud

Weather Underground

Northeastern Weather Network

AWEKAS

Citizen Weather Observer Program (CWOP)

HAMweather, WeatherForYou, PWS Weather


Weather Underground History page Text

Daily Summary for November 28, 2017 Units:  Both    English   Metric
« Previous Day
Next Day »
Daily Weekly Monthly Yearly Custom
  High: Low: Average:
Temperature: 50.8 °F /  10.4 °C 33.7 °F /  0.9 °C 43.3 °F /  6.3 °C
Dew Point: 47.7 °F /  8.7 °C 25.9 °F /  -3.4 °C 34.7 °F /  1.5 °C
Humidity: 91 % 52 % 72 %
Wind Speed: 6.4 mph /  10.3 km/h - 2.2 mph /  3.5 km/h
Wind Gust: 11.5 mph /  18.5 km/h - -
Wind:- - SE
Pressure: 30.49 in /  1032.4 hPa 30.02 in /  1016.5 hPa -
Precipitation: 0.00 in /  0 mm    
Historical Graphs
 
 
Tabular Data for November 28, 2017
Time Temperature Dew Point Pressure Wind Wind Speed Wind Gust Humidity Rainfall Rate (Hourly)
00:02 38.7 °F /  3.7 °C 26.0 °F /  -3.3 °C 30.33 in /  1027 hPa NNW 1.5 mph /  2.4 km/h 3.5 mph /  5.6 km/h 60 % 0.00 in /  0 mm
00:07 38.6 °F /  3.7 °C 25.9 °F /  -3.4 °C 30.32 in /  1026.6 hPa NNE 1.6 mph /  2.6 km/h 3.5 mph /  5.6 km/h 60 % 0.00 in /  0 mm
00:09 38.6 °F /  3.7 °C 26.3 °F /  -3.2 °C 30.33 in /  1027 hPa North 1.8 mph /  2.9 km/h 3.5 mph /  5.6 km/h 61 % 0.00 in /  0 mm
00:14 38.4 °F /  3.6 °C 26.1 °F /  -3.3 °C 30.33 in /  1027 hPa NNE 1.0 mph /  1.6 km/h 4.6 mph /  7.4 km/h 61 % 0.00 in /  0 mm
00:19 38.3 °F /  3.5 °C 26.0 °F /  -3.3 °C 30.33 in /  1027 hPa North 3.1 mph /  5 km/h 4.0 mph /  6.4 km/h 61 % 0.00 in /  0 mm
00:24 38.2 °F /  3.4 °C 26.7 °F /  -2.9 °C 30.33 in /  1027 hPa North 2.3 mph /  3.7 km/h 3.5 mph /  5.6 km/h 63 % 0.00 in /  0 mm
00:25 38.2 °F /  3.4 °C 26.3 °F /  -3.2 °C 30.33 in /  1027 hPa North 1.0 mph /  1.6 km/h 3.5 mph /  5.6 km/h 62 % 0.00 in /  0 mm
00:30 38.1 °F /  3.4 °C 26.6 °F /  -3 °C 30.33 in /  1027 hPa North 3.2 mph /  5.1 km/h 5.8 mph /  9.3 km/h 63 % 0.00 in /  0 mm
00:35 38.0 °F /  3.3 °C 26.9 °F /  -2.8 °C 30.33 in /  1027 hPa North 1.7 mph /  2.7 km/h 3.5 mph /  5.6 km/h 64 % 0.00 in /  0 mm
00:39 38.0 °F /  3.3 °C 27.3 °F /  -2.6 °C 30.34 in /  1027.3 hPa North 3.5 mph /  5.6 km/h 6.0 mph /  9.7 km/h 65 % 0.00 in /  0 mm
00:44 37.9 °F /  3.3 °C 27.2 °F /  -2.7 °C 30.33 in /  1027 hPa NNE 0.8 mph /  1.3 km/h 3.5 mph /  5.6 km/h 65 % 0.00 in /  0 mm
00:49 37.8 °F /  3.2 °C 27.1 °F /  -2.7 °C 30.33 in /  1027 hPa NNE 2.3 mph /  3.7 km/h 4.6 mph /  7.4 km/h 65 % 0.00 in /  0 mm
00:54 37.8 °F /  3.2 °C 27.1 °F /  -2.7 °C 30.33 in /  1027 hPa North 0.7 mph /  1.1 km/h 5.0 mph /  8 km/h 65 % 0.00 in /  0 mm
00:59 37.7 °F /  3.2 °C 26.6 °F /  -3 °C 30.34 in /  1027.3 hPa NNE 0.9 mph /  1.4 km/h 3.5 mph /  5.6 km/h 64 % 0.00 in /  0 mm
01:04 37.7 °F /  3.2 °C 27.0 °F /  -2.8 °C 30.34 in /  1027.3 hPa NNE 1.6 mph /  2.6 km/h 3.5 mph /  5.6 km/h 65 % 0.00 in /  0 mm
01:09 37.6 °F /  3.1 °C 26.9 °F /  -2.8 °C 30.34 in /  1027.3 hPa NE 0.6 mph /  1 km/h 3.5 mph /  5.6 km/h 65 % 0.00 in /  0 mm
01:14 37.5 °F /  3.1 °C 26.8 °F /  -2.9 °C 30.35 in /  1027.7 hPa North 1.8 mph /  2.9 km/h 3.5 mph /  5.6 km/h 65 % 0.00 in /  0 mm
01:19 37.4 °F /  3 °C 27.1 °F /  -2.7 °C 30.35 in /  1027.7 hPa NNE 2.1 mph /  3.4 km/h 3.5 mph /  5.6 km/h 66 % 0.00 in /  0 mm
01:24 37.3 °F /  2.9 °C 26.6 °F /  -3 °C 30.35 in /  1027.7 hPa NNE 4.0 mph /  6.4 km/h 5.0 mph /  8 km/h 65 % 0.00 in /  0 mm
01:29 37.3 °F /  2.9 °C 26.6 °F /  -3 °C 30.36 in /  1028 hPa NNE 0.7 mph /  1.1 km/h 3.5 mph /  5.6 km/h 65 % 0.00 in /  0 mm
01:34 37.2 °F /  2.9 °C 26.9 °F /  -2.8 °C 30.36 in /  1028 hPa NNE 1.3 mph /  2.1 km/h 3.5 mph /  5.6 km/h 66 % 0.00 in /  0 mm
01:39 37.2 °F /  2.9 °C 26.9 °F /  -2.8 °C 30.36 in /  1028 hPa NNE 5.9 mph /  9.5 km/h 8.1 mph /  13 km/h 66 % 0.00 in /  0 mm
01:44 37.2 °F /  2.9 °C 26.9 °F /  -2.8 °C 30.36 in /  1028 hPa NNE 4.9 mph /  7.9 km/h 6.9 mph /  11.1 km/h 66 % 0.00 in /  0 mm
01:49 37.2 °F /  2.9 °C 26.9 °F /  -2.8 °C 30.36 in /  1028 hPa ENE 1.4 mph /  2.3 km/h 4.6 mph /  7.4 km/h 66 % 0.00 in /  0 mm
01:54 37.2 °F /  2.9 °C 26.9 °F /  -2.8 °C 30.36 in /  1028 hPa NNE 3.3 mph /  5.3 km/h 4.0 mph /  6.4 km/h 66 % 0.00 in /  0 mm
01:59 37.2 °F /  2.9 °C 26.9 °F /  -2.8 °C 30.35 in /  1027.7 hPa NNE 2.5 mph /  4 km/h 4.6 mph /  7.4 km/h 66 % 0.00 in /  0 mm
02:04 37.3 °F /  2.9 °C 27.0 °F /  -2.8 °C 30.35 in /  1027.7 hPa NNE 1.2 mph /  1.9 km/h 3.5 mph /  5.6 km/h 66 % 0.00 in /  0 mm
02:09 37.3 °F /  2.9 °C 27.0 °F /  -2.8 °C 30.35 in /  1027.7 hPa North 2.2 mph /  3.5 km/h 3.5 mph /  5.6 km/h 66 % 0.00 in /  0 mm
02:15 37.2 °F /  2.9 °C 26.9 °F /  -2.8 °C 30.36 in /  1028 hPa ENE 2.0 mph /  3.2 km/h 3.5 mph /  5.6 km/h 66 % 0.00 in /  0 mm
02:20 37.2 °F /  2.9 °C 26.9 °F /  -2.8 °C 30.36 in /  1028 hPa NE 0.2 mph /  0.3 km/h 3.5 mph /  5.6 km/h 66 % 0.00 in /  0 mm
02:25 37.1 °F /  2.8 °C 26.4 °F /  -3.1 °C 30.36 in /  1028 hPa NE 1.5 mph /  2.4 km/h 4.6 mph /  7.4 km/h 65 % 0.00 in /  0 mm
02:30 37.1 °F /  2.8 °C 26.8 °F /  -2.9 °C 30.36 in /  1028 hPa NNE 3.8 mph /  6.1 km/h 5.8 mph /  9.3 km/h 66 % 0.00 in /  0 mm
02:35 37.1 °F /  2.8 °C 26.8 °F /  -2.9 °C 30.36 in /  1028 hPa ENE 1.2 mph /  1.9 km/h 4.6 mph /  7.4 km/h 66 % 0.00 in /  0 mm
02:40 37.0 °F /  2.8 °C 27.1 °F /  -2.7 °C 30.37 in /  1028.3 hPa NNE 1.6 mph /  2.6 km/h 5.8 mph /  9.3 km/h 67 % 0.00 in /  0 mm
02:45 37.0 °F /  2.8 °C 27.1 °F /  -2.7 °C 30.37 in /  1028.3 hPa NNE 0.4 mph /  0.6 km/h 3.5 mph /  5.6 km/h 67 % 0.00 in /  0 mm
02:50 37.0 °F /  2.8 °C 27.4 °F /  -2.6 °C 30.37 in /  1028.3 hPa NE 2.2 mph /  3.5 km/h 3.5 mph /  5.6 km/h 68 % 0.00 in /  0 mm
02:55 36.9 °F /  2.7 °C 27.3 °F /  -2.6 °C 30.37 in /  1028.3 hPa NNE 2.8 mph /  4.5 km/h 4.6 mph /  7.4 km/h 68 % 0.00 in /  0 mm
03:00 36.9 °F /  2.7 °C 27.0 °F /  -2.8 °C 30.38 in /  1028.7 hPa North 1.0 mph /  1.6 km/h 3.5 mph /  5.6 km/h 67 % 0.00 in /  0 mm
03:05 36.8 °F /  2.7 °C 27.2 °F /  -2.7 °C 30.38 in /  1028.7 hPa NE 2.2 mph /  3.5 km/h 3.5 mph /  5.6 km/h 68 % 0.00 in /  0 mm
03:10 36.8 °F /  2.7 °C 27.9 °F /  -2.3 °C 30.37 in /  1028.3 hPa NNE 1.6 mph /  2.6 km/h 3.5 mph /  5.6 km/h 70 % 0.00 in /  0 mm
03:15 36.8 °F /  2.7 °C 27.6 °F /  -2.4 °C 30.37 in /  1028.3 hPa NNE 1.9 mph /  3.1 km/h 3.5 mph /  5.6 km/h 69 % 0.00 in /  0 mm
03:20 36.7 °F /  2.6 °C 27.8 °F /  -2.3 °C 30.38 in /  1028.7 hPa East 2.4 mph /  3.9 km/h 6.9 mph /  11.1 km/h 70 % 0.00 in /  0 mm
03:25 36.7 °F /  2.6 °C 28.2 °F /  -2.1 °C 30.38 in /  1028.7 hPa ENE 2.1 mph /  3.4 km/h 6.9 mph /  11.1 km/h 71 % 0.00 in /  0 mm
03:30 36.7 °F /  2.6 °C 28.5 °F /  -1.9 °C 30.39 in /  1029 hPa NE 2.3 mph /  3.7 km/h 9.2 mph /  14.8 km/h 72 % 0.00 in /  0 mm
03:35 36.8 °F /  2.7 °C 28.6 °F /  -1.9 °C 30.38 in /  1028.7 hPa NNE 2.8 mph /  4.5 km/h 4.6 mph /  7.4 km/h 72 % 0.00 in /  0 mm
03:40 36.8 °F /  2.7 °C 28.6 °F /  -1.9 °C 30.39 in /  1029 hPa NE 0.9 mph /  1.4 km/h 4.6 mph /  7.4 km/h 72 % 0.00 in /  0 mm
03:45 36.7 °F /  2.6 °C 28.2 °F /  -2.1 °C 30.39 in /  1029 hPa ENE 2.1 mph /  3.4 km/h 4.6 mph /  7.4 km/h 71 % 0.00 in /  0 mm
03:50 36.7 °F /  2.6 °C 28.5 °F /  -1.9 °C 30.39 in /  1029 hPa NNE 1.7 mph /  2.7 km/h 3.5 mph /  5.6 km/h 72 % 0.00 in /  0 mm
03:55 36.6 °F /  2.6 °C 28.4 °F /  -2 °C 30.39 in /  1029 hPa ENE 1.4 mph /  2.3 km/h 8.1 mph /  13 km/h 72 % 0.00 in /  0 mm
04:00 36.6 °F /  2.6 °C 28.4 °F /  -2 °C 30.38 in /  1028.7 hPa NE 3.3 mph /  5.3 km/h 5.8 mph /  9.3 km/h 72 % 0.00 in /  0 mm
04:05 36.5 °F /  2.5 °C 28.3 °F /  -2.1 °C 30.39 in /  1029 hPa NNE 1.6 mph /  2.6 km/h 3.5 mph /  5.6 km/h 72 % 0.00 in /  0 mm
04:06 36.6 °F /  2.6 °C 28.4 °F /  -2 °C 30.38 in /  1028.7 hPa NE 1.7 mph /  2.7 km/h 3.5 mph /  5.6 km/h 72 % 0.00 in /  0 mm
04:11 36.4 °F /  2.4 °C 28.2 °F /  -2.1 °C 30.39 in /  1029 hPa NNE 2.3 mph /  3.7 km/h 5.8 mph /  9.3 km/h 72 % 0.00 in /  0 mm
04:16 36.4 °F /  2.4 °C 27.9 °F /  -2.3 °C 30.39 in /  1029 hPa ENE 1.8 mph /  2.9 km/h 3.5 mph /  5.6 km/h 71 % 0.00 in /  0 mm
04:21 36.4 °F /  2.4 °C 27.9 °F /  -2.3 °C 30.39 in /  1029 hPa ENE 2.5 mph /  4 km/h 5.8 mph /  9.3 km/h 71 % 0.00 in /  0 mm
04:26 36.3 °F /  2.4 °C 27.8 °F /  -2.3 °C 30.39 in /  1029 hPa NNE 0.9 mph /  1.4 km/h 3.0 mph /  4.8 km/h 71 % 0.00 in /  0 mm
04:31 36.2 °F /  2.3 °C 27.7 °F /  -2.4 °C 30.40 in /  1029.3 hPa ENE 2.1 mph /  3.4 km/h 3.5 mph /  5.6 km/h 71 % 0.00 in /  0 mm
04:36 36.2 °F /  2.3 °C 27.7 °F /  -2.4 °C 30.40 in /  1029.3 hPa ENE 2.6 mph /  4.2 km/h 3.5 mph /  5.6 km/h 71 % 0.00 in /  0 mm
04:41 36.2 °F /  2.3 °C 28.0 °F /  -2.2 °C 30.40 in /  1029.3 hPa ENE 2.3 mph /  3.7 km/h 3.5 mph /  5.6 km/h 72 % 0.00 in /  0 mm
04:46 36.2 °F /  2.3 °C 28.4 °F /  -2 °C 30.41 in /  1029.7 hPa ENE 4.6 mph /  7.4 km/h 8.1 mph /  13 km/h 73 % 0.00 in /  0 mm
04:51 36.3 °F /  2.4 °C 28.1 °F /  -2.2 °C 30.40 in /  1029.3 hPa ENE 2.7 mph /  4.3 km/h 5.8 mph /  9.3 km/h 72 % 0.00 in /  0 mm
04:56 36.3 °F /  2.4 °C 28.1 °F /  -2.2 °C 30.40 in /  1029.3 hPa ENE 2.8 mph /  4.5 km/h 4.6 mph /  7.4 km/h 72 % 0.00 in /  0 mm
05:01 36.4 °F /  2.4 °C 28.6 °F /  -1.9 °C 30.41 in /  1029.7 hPa ENE 3.3 mph /  5.3 km/h 6.9 mph /  11.1 km/h 73 % 0.00 in /  0 mm
05:06 36.4 °F /  2.4 °C 28.6 °F /  -1.9 °C 30.40 in /  1029.3 hPa ENE 4.2 mph /  6.8 km/h 8.1 mph /  13 km/h 73 % 0.00 in /  0 mm
05:11 36.4 °F /  2.4 °C 28.6 °F /  -1.9 °C 30.41 in /  1029.7 hPa ENE 2.7 mph /  4.3 km/h 8.1 mph /  13 km/h 73 % 0.00 in /  0 mm
05:16 36.3 °F /  2.4 °C 27.4 °F /  -2.6 °C 30.41 in /  1029.7 hPa ENE 4.3 mph /  6.9 km/h 9.2 mph /  14.8 km/h 70 % 0.00 in /  0 mm
05:21 36.4 °F /  2.4 °C 27.9 °F /  -2.3 °C 30.41 in /  1029.7 hPa NE 5.0 mph /  8 km/h 8.1 mph /  13 km/h 71 % 0.00 in /  0 mm
05:22 36.4 °F /  2.4 °C 27.9 °F /  -2.3 °C 30.41 in /  1029.7 hPa NE 5.0 mph /  8 km/h 8.1 mph /  13 km/h 71 % 0.00 in /  0 mm
05:27 36.3 °F /  2.4 °C 27.4 °F /  -2.6 °C 30.41 in /  1029.7 hPa ENE 3.3 mph /  5.3 km/h 9.2 mph /  14.8 km/h 70 % 0.00 in /  0 mm
05:32 36.3 °F /  2.4 °C 27.4 °F /  -2.6 °C 30.41 in /  1029.7 hPa ENE 3.7 mph /  6 km/h 6.9 mph /  11.1 km/h 70 % 0.00 in /  0 mm
05:37 36.3 °F /  2.4 °C 27.4 °F /  -2.6 °C 30.41 in /  1029.7 hPa ENE 3.6 mph /  5.8 km/h 4.6 mph /  7.4 km/h 70 % 0.00 in /  0 mm
05:42 36.3 °F /  2.4 °C 27.4 °F /  -2.6 °C 30.41 in /  1029.7 hPa ENE 4.2 mph /  6.8 km/h 8.1 mph /  13 km/h 70 % 0.00 in /  0 mm
05:47 36.2 °F /  2.3 °C 27.7 °F /  -2.4 °C 30.42 in /  1030 hPa ENE 5.0 mph /  8 km/h 9.2 mph /  14.8 km/h 71 % 0.00 in /  0 mm
05:48 36.2 °F /  2.3 °C 27.7 °F /  -2.4 °C 30.42 in /  1030 hPa ENE 3.7 mph /  6 km/h 8.1 mph /  13 km/h 71 % 0.00 in /  0 mm
05:53 36.2 °F /  2.3 °C 28.0 °F /  -2.2 °C 30.42 in /  1030 hPa ENE 3.8 mph /  6.1 km/h 8.1 mph /  13 km/h 72 % 0.00 in /  0 mm
05:58 36.3 °F /  2.4 °C 28.5 °F /  -1.9 °C 30.42 in /  1030 hPa ENE 4.9 mph /  7.9 km/h 8.1 mph /  13 km/h 73 % 0.00 in /  0 mm
06:03 36.3 °F /  2.4 °C 28.8 °F /  -1.8 °C 30.42 in /  1030 hPa ENE 3.0 mph /  4.8 km/h 4.6 mph /  7.4 km/h 74 % 0.00 in /  0 mm
06:08 36.3 °F /  2.4 °C 28.5 °F /  -1.9 °C 30.42 in /  1030 hPa ENE 2.4 mph /  3.9 km/h 3.5 mph /  5.6 km/h 73 % 0.00 in /  0 mm
06:13 36.3 °F /  2.4 °C 28.8 °F /  -1.8 °C 30.42 in /  1030 hPa East 3.4 mph /  5.5 km/h 5.0 mph /  8 km/h 74 % 0.00 in /  0 mm
06:18 36.2 °F /  2.3 °C 28.7 °F /  -1.8 °C 30.42 in /  1030 hPa East 2.2 mph /  3.5 km/h 3.5 mph /  5.6 km/h 74 % 0.00 in /  0 mm
06:23 36.2 °F /  2.3 °C 28.7 °F /  -1.8 °C 30.43 in /  1030.4 hPa East 2.0 mph /  3.2 km/h 3.5 mph /  5.6 km/h 74 % 0.00 in /  0 mm
06:28 36.1 °F /  2.3 °C 28.6 °F /  -1.9 °C 30.43 in /  1030.4 hPa East 2.1 mph /  3.4 km/h 3.5 mph /  5.6 km/h 74 % 0.00 in /  0 mm
06:33 36.1 °F /  2.3 °C 28.6 °F /  -1.9 °C 30.44 in /  1030.7 hPa East 0.7 mph /  1.1 km/h 2.3 mph /  3.7 km/h 74 % 0.00 in /  0 mm
06:38 36.1 °F /  2.3 °C 28.3 °F /  -2.1 °C 30.45 in /  1031 hPa East 0.6 mph /  1 km/h 1.2 mph /  1.9 km/h 73 % 0.00 in /  0 mm
06:43 36.0 °F /  2.2 °C 28.2 °F /  -2.1 °C 30.45 in /  1031 hPa Calm   1.2 mph /  1.9 km/h 73 % 0.00 in /  0 mm
06:48 35.9 °F /  2.2 °C 28.1 °F /  -2.2 °C 30.45 in /  1031 hPa East 0.9 mph /  1.4 km/h 2.3 mph /  3.7 km/h 73 % 0.00 in /  0 mm
06:53 35.7 °F /  2.1 °C 27.9 °F /  -2.3 °C 30.45 in /  1031 hPa East 0.2 mph /  0.3 km/h 1.2 mph /  1.9 km/h 73 % 0.00 in /  0 mm
06:58 35.5 °F /  1.9 °C 28.0 °F /  -2.2 °C 30.45 in /  1031 hPa East 0.1 mph /  0.2 km/h 2.3 mph /  3.7 km/h 74 % 0.00 in /  0 mm
07:18 34.4 °F /  1.3 °C 27.6 °F /  -2.4 °C 30.46 in /  1031.4 hPa SSE 0.1 mph /  0.2 km/h 1.0 mph /  1.6 km/h 76 % 0.00 in /  0 mm
07:28 34.1 °F /  1.2 °C 27.3 °F /  -2.6 °C 30.46 in /  1031.4 hPa Calm     76 % 0.00 in /  0 mm
07:33 33.9 °F /  1.1 °C 27.1 °F /  -2.7 °C 30.46 in /  1031.4 hPa ENE 1.1 mph /  1.8 km/h 1.2 mph /  1.9 km/h 76 % 0.00 in /  0 mm
07:49 33.7 °F /  0.9 °C 27.3 °F /  -2.6 °C 30.47 in /  1031.7 hPa ENE 0.3 mph /  0.5 km/h 2.0 mph /  3.2 km/h 77 % 0.00 in /  0 mm
07:54 33.7 °F /  0.9 °C 27.3 °F /  -2.6 °C 30.47 in /  1031.7 hPa SE 0.6 mph /  1 km/h 2.3 mph /  3.7 km/h 77 % 0.00 in /  0 mm
08:04 34.0 °F /  1.1 °C 27.2 °F /  -2.7 °C 30.47 in /  1031.7 hPa SE 1.3 mph /  2.1 km/h 3.5 mph /  5.6 km/h 76 % 0.00 in /  0 mm
08:09 34.2 °F /  1.2 °C 27.1 °F /  -2.7 °C 30.47 in /  1031.7 hPa SE 0.7 mph /  1.1 km/h 2.3 mph /  3.7 km/h 75 % 0.00 in /  0 mm
08:14 34.5 °F /  1.4 °C 27.1 °F /  -2.7 °C 30.47 in /  1031.7 hPa Calm   1.0 mph /  1.6 km/h 74 % 0.00 in /  0 mm
08:19 34.9 °F /  1.6 °C 27.1 °F /  -2.7 °C 30.48 in /  1032.1 hPa SE 1.1 mph /  1.8 km/h 3.5 mph /  5.6 km/h 73 % 0.00 in /  0 mm
08:24 35.2 °F /  1.8 °C 27.1 °F /  -2.7 °C 30.47 in /  1031.7 hPa ESE 0.8 mph /  1.3 km/h 3.5 mph /  5.6 km/h 72 % 0.00 in /  0 mm
08:29 35.6 °F /  2 °C 27.1 °F /  -2.7 °C 30.47 in /  1031.7 hPa East 0.2 mph /  0.3 km/h 1.2 mph /  1.9 km/h 71 % 0.00 in /  0 mm
08:34 36.0 °F /  2.2 °C 27.2 °F /  -2.7 °C 30.47 in /  1031.7 hPa East 2.0 mph /  3.2 km/h 3.5 mph /  5.6 km/h 70 % 0.00 in /  0 mm
08:39 36.4 °F /  2.4 °C 27.2 °F /  -2.7 °C 30.47 in /  1031.7 hPa East 1.3 mph /  2.1 km/h 3.5 mph /  5.6 km/h 69 % 0.00 in /  0 mm
08:44 36.7 °F /  2.6 °C 27.1 °F /  -2.7 °C 30.47 in /  1031.7 hPa East 1.4 mph /  2.3 km/h 2.3 mph /  3.7 km/h 68 % 0.00 in /  0 mm
08:49 37.0 °F /  2.8 °C 27.1 °F /  -2.7 °C 30.47 in /  1031.7 hPa SSE 2.2 mph /  3.5 km/h 7.0 mph /  11.3 km/h 67 % 0.00 in /  0 mm
08:54 37.5 °F /  3.1 °C 27.5 °F /  -2.5 °C 30.47 in /  1031.7 hPa East 1.5 mph /  2.4 km/h 5.8 mph /  9.3 km/h 67 % 0.00 in /  0 mm
08:59 38.1 °F /  3.4 °C 27.7 °F /  -2.4 °C 30.48 in /  1032.1 hPa East 3.2 mph /  5.1 km/h 6.0 mph /  9.7 km/h 66 % 0.00 in /  0 mm
09:04 38.8 °F /  3.8 °C 28.4 °F /  -2 °C 30.48 in /  1032.1 hPa ESE 1.0 mph /  1.6 km/h 1.2 mph /  1.9 km/h 66 % 0.00 in /  0 mm
09:06 38.8 °F /  3.8 °C 28.1 °F /  -2.2 °C 30.48 in /  1032.1 hPa East 1.0 mph /  1.6 km/h 6.0 mph /  9.7 km/h 65 % 0.00 in /  0 mm
09:11 39.4 °F /  4.1 °C 28.6 °F /  -1.9 °C 30.48 in /  1032.1 hPa ESE 1.0 mph /  1.6 km/h 4.0 mph /  6.4 km/h 65 % 0.00 in /  0 mm
09:16 40.0 °F /  4.4 °C 28.4 °F /  -2 °C 30.48 in /  1032.1 hPa ESE 2.0 mph /  3.2 km/h 5.0 mph /  8 km/h 63 % 0.00 in /  0 mm
09:21 40.4 °F /  4.7 °C 28.8 °F /  -1.8 °C 30.48 in /  1032.1 hPa ESE 3.0 mph /  4.8 km/h 9.0 mph /  14.5 km/h 63 % 0.00 in /  0 mm
09:26 40.7 °F /  4.8 °C 28.7 °F /  -1.8 °C 30.48 in /  1032.1 hPa East 2.5 mph /  4 km/h 3.5 mph /  5.6 km/h 62 % 0.00 in /  0 mm
09:31 41.1 °F /  5.1 °C 29.0 °F /  -1.7 °C 30.48 in /  1032.1 hPa East 3.0 mph /  4.8 km/h 7.0 mph /  11.3 km/h 62 % 0.00 in /  0 mm
09:36 41.3 °F /  5.2 °C 28.9 °F /  -1.7 °C 30.48 in /  1032.1 hPa East 2.0 mph /  3.2 km/h 6.0 mph /  9.7 km/h 61 % 0.00 in /  0 mm
09:41 41.6 °F /  5.3 °C 29.6 °F /  -1.3 °C 30.48 in /  1032.1 hPa East 3.0 mph /  4.8 km/h 6.0 mph /  9.7 km/h 62 % 0.00 in /  0 mm
09:46 42.0 °F /  5.6 °C 29.5 °F /  -1.4 °C 30.49 in /  1032.4 hPa East 2.0 mph /  3.2 km/h 6.0 mph /  9.7 km/h 61 % 0.00 in /  0 mm
09:51 42.3 °F /  5.7 °C 29.0 °F /  -1.7 °C 30.48 in /  1032.1 hPa East 2.0 mph /  3.2 km/h 6.0 mph /  9.7 km/h 59 % 0.00 in /  0 mm
09:56 42.9 °F /  6.1 °C 29.5 °F /  -1.4 °C 30.49 in /  1032.4 hPa East 1.7 mph /  2.7 km/h 3.5 mph /  5.6 km/h 59 % 0.00 in /  0 mm
10:06 43.9 °F /  6.6 °C 28.8 °F /  -1.8 °C 30.49 in /  1032.4 hPa East 1.5 mph /  2.4 km/h 2.3 mph /  3.7 km/h 55 % 0.00 in /  0 mm
10:11 44.2 °F /  6.8 °C 28.1 °F /  -2.2 °C 30.48 in /  1032.1 hPa SE 1.0 mph /  1.6 km/h 4.6 mph /  7.4 km/h 53 % 0.00 in /  0 mm
10:16 44.6 °F /  7 °C 28.5 °F /  -1.9 °C 30.49 in /  1032.4 hPa SE 0.3 mph /  0.5 km/h 1.2 mph /  1.9 km/h 53 % 0.00 in /  0 mm
10:27 44.7 °F /  7.1 °C 28.6 °F /  -1.9 °C 30.49 in /  1032.4 hPa ENE 2.2 mph /  3.5 km/h 3.5 mph /  5.6 km/h 53 % 0.00 in /  0 mm
10:37 44.3 °F /  6.8 °C 28.2 °F /  -2.1 °C 30.48 in /  1032.1 hPa ENE 0.5 mph /  0.8 km/h 2.3 mph /  3.7 km/h 53 % 0.00 in /  0 mm
10:47 44.6 °F /  7 °C 28.5 °F /  -1.9 °C 30.48 in /  1032.1 hPa ENE 2.1 mph /  3.4 km/h 3.5 mph /  5.6 km/h 53 % 0.00 in /  0 mm
10:52 44.7 °F /  7.1 °C 29.1 °F /  -1.6 °C 30.48 in /  1032.1 hPa NE 2.6 mph /  4.2 km/h 5.0 mph /  8 km/h 54 % 0.00 in /  0 mm
10:57 44.5 °F /  6.9 °C 28.0 °F /  -2.2 °C 30.48 in /  1032.1 hPa ENE 1.8 mph /  2.9 km/h 5.0 mph /  8 km/h 52 % 0.00 in /  0 mm
11:07 43.9 °F /  6.6 °C 27.4 °F /  -2.6 °C 30.47 in /  1031.7 hPa ENE 3.0 mph /  4.8 km/h 4.0 mph /  6.4 km/h 52 % 0.00 in /  0 mm
11:12 43.8 °F /  6.6 °C 28.2 °F /  -2.1 °C 30.47 in /  1031.7 hPa ENE 1.6 mph /  2.6 km/h 3.5 mph /  5.6 km/h 54 % 0.00 in /  0 mm
11:17 43.8 °F /  6.6 °C 28.7 °F /  -1.8 °C 30.46 in /  1031.4 hPa NE 1.2 mph /  1.9 km/h 3.5 mph /  5.6 km/h 55 % 0.00 in /  0 mm
11:27 44.1 °F /  6.7 °C 30.3 °F /  -0.9 °C 30.46 in /  1031.4 hPa SSE 3.3 mph /  5.3 km/h 5.8 mph /  9.3 km/h 58 % 0.00 in /  0 mm
11:32 44.5 °F /  6.9 °C 30.2 °F /  -1 °C 30.46 in /  1031.4 hPa SSE 3.9 mph /  6.3 km/h 4.6 mph /  7.4 km/h 57 % 0.00 in /  0 mm
11:42 44.9 °F /  7.2 °C 31.0 °F /  -0.6 °C 30.45 in /  1031 hPa SSE 3.7 mph /  6 km/h 5.8 mph /  9.3 km/h 58 % 0.00 in /  0 mm
11:52 45.4 °F /  7.4 °C 31.9 °F /  -0.1 °C 30.45 in /  1031 hPa SSE 5.6 mph /  9 km/h 8.0 mph /  12.9 km/h 59 % 0.00 in /  0 mm
11:57 45.7 °F /  7.6 °C 32.6 °F /  0.3 °C 30.44 in /  1030.7 hPa South 1.2 mph /  1.9 km/h 3.5 mph /  5.6 km/h 60 % 0.00 in /  0 mm
12:02 46.1 °F /  7.8 °C 32.1 °F /  0.1 °C 30.44 in /  1030.7 hPa SSE 6.2 mph /  10 km/h 9.2 mph /  14.8 km/h 58 % 0.00 in /  0 mm
12:07 46.3 °F /  7.9 °C 32.3 °F /  0.2 °C 30.44 in /  1030.7 hPa SSE 4.8 mph /  7.7 km/h 8.1 mph /  13 km/h 58 % 0.00 in /  0 mm
12:12 46.5 °F /  8.1 °C 32.9 °F /  0.5 °C 30.43 in /  1030.4 hPa SSE 5.5 mph /  8.9 km/h 6.9 mph /  11.1 km/h 59 % 0.00 in /  0 mm
12:18 46.8 °F /  8.2 °C 33.2 °F /  0.7 °C 30.43 in /  1030.4 hPa SE 3.4 mph /  5.5 km/h 9.2 mph /  14.8 km/h 59 % 0.00 in /  0 mm
12:23 47.1 °F /  8.4 °C 33.5 °F /  0.8 °C 30.43 in /  1030.4 hPa SSE 2.0 mph /  3.2 km/h 9.2 mph /  14.8 km/h 59 % 0.00 in /  0 mm
12:28 47.4 °F /  8.6 °C 33.4 °F /  0.8 °C 30.42 in /  1030 hPa SE 1.6 mph /  2.6 km/h 5.8 mph /  9.3 km/h 58 % 0.00 in /  0 mm
12:38 47.9 °F /  8.8 °C 33.8 °F /  1 °C 30.42 in /  1030 hPa SSW 5.2 mph /  8.4 km/h 9.2 mph /  14.8 km/h 58 % 0.00 in /  0 mm
12:43 48.1 °F /  8.9 °C 34.0 °F /  1.1 °C 30.42 in /  1030 hPa SSE 3.0 mph /  4.8 km/h 4.0 mph /  6.4 km/h 58 % 0.00 in /  0 mm
12:48 48.3 °F /  9.1 °C 34.2 °F /  1.2 °C 30.42 in /  1030 hPa SSE 2.0 mph /  3.2 km/h 4.6 mph /  7.4 km/h 58 % 0.00 in /  0 mm
12:53 48.3 °F /  9.1 °C 34.6 °F /  1.4 °C 30.41 in /  1029.7 hPa SE 0.7 mph /  1.1 km/h 4.6 mph /  7.4 km/h 59 % 0.00 in /  0 mm
13:03 48.5 °F /  9.2 °C 34.8 °F /  1.6 °C 30.41 in /  1029.7 hPa ESE 1.2 mph /  1.9 km/h 6.9 mph /  11.1 km/h 59 % 0.00 in /  0 mm
13:08 48.6 °F /  9.2 °C 34.5 °F /  1.4 °C 30.41 in /  1029.7 hPa South 3.7 mph /  6 km/h 7.0 mph /  11.3 km/h 58 % 0.00 in /  0 mm
13:13 48.7 °F /  9.3 °C 34.6 °F /  1.4 °C 30.41 in /  1029.7 hPa SSE 4.7 mph /  7.6 km/h 9.0 mph /  14.5 km/h 58 % 0.00 in /  0 mm
13:23 48.8 °F /  9.3 °C 35.1 °F /  1.7 °C 30.41 in /  1029.7 hPa SSE 5.4 mph /  8.7 km/h 6.9 mph /  11.1 km/h 59 % 0.00 in /  0 mm
13:28 48.8 °F /  9.3 °C 35.1 °F /  1.7 °C 30.40 in /  1029.3 hPa SW 4.4 mph /  7.1 km/h 6.9 mph /  11.1 km/h 59 % 0.00 in /  0 mm
13:33 48.9 °F /  9.4 °C 35.2 °F /  1.8 °C 30.40 in /  1029.3 hPa SSW 4.7 mph /  7.6 km/h 10.4 mph /  16.7 km/h 59 % 0.00 in /  0 mm
13:38 48.9 °F /  9.4 °C 35.2 °F /  1.8 °C 30.40 in /  1029.3 hPa SE 3.7 mph /  6 km/h 11.5 mph /  18.5 km/h 59 % 0.00 in /  0 mm
13:48 49.3 °F /  9.6 °C 36.0 °F /  2.2 °C 30.40 in /  1029.3 hPa South 1.6 mph /  2.6 km/h 5.8 mph /  9.3 km/h 60 % 0.00 in /  0 mm
13:53 49.5 °F /  9.7 °C 36.2 °F /  2.3 °C 30.40 in /  1029.3 hPa South 6.4 mph /  10.3 km/h 9.2 mph /  14.8 km/h 60 % 0.00 in /  0 mm
13:58 49.5 °F /  9.7 °C 36.2 °F /  2.3 °C 30.40 in /  1029.3 hPa SSE 3.2 mph /  5.1 km/h 9.2 mph /  14.8 km/h 60 % 0.00 in /  0 mm
14:03 49.4 °F /  9.7 °C 36.1 °F /  2.3 °C 30.40 in /  1029.3 hPa South 3.8 mph /  6.1 km/h 10.4 mph /  16.7 km/h 60 % 0.00 in /  0 mm
14:08 49.5 °F /  9.7 °C 36.6 °F /  2.6 °C 30.40 in /  1029.3 hPa SSW 3.7 mph /  6 km/h 7.0 mph /  11.3 km/h 61 % 0.00 in /  0 mm
14:13 49.5 °F /  9.7 °C 37.0 °F /  2.8 °C 30.40 in /  1029.3 hPa SW 2.5 mph /  4 km/h 3.5 mph /  5.6 km/h 62 % 0.00 in /  0 mm
14:18 49.5 °F /  9.7 °C 36.6 °F /  2.6 °C 30.40 in /  1029.3 hPa SSE 2.4 mph /  3.9 km/h 6.9 mph /  11.1 km/h 61 % 0.00 in /  0 mm
14:23 49.5 °F /  9.7 °C 37.0 °F /  2.8 °C 30.40 in /  1029.3 hPa South 2.0 mph /  3.2 km/h 3.5 mph /  5.6 km/h 62 % 0.00 in /  0 mm
14:28 49.4 °F /  9.7 °C 37.3 °F /  2.9 °C 30.39 in /  1029 hPa South 3.4 mph /  5.5 km/h 5.8 mph /  9.3 km/h 63 % 0.00 in /  0 mm
14:33 49.4 °F /  9.7 °C 36.9 °F /  2.7 °C 30.40 in /  1029.3 hPa SSE 2.5 mph /  4 km/h 6.9 mph /  11.1 km/h 62 % 0.00 in /  0 mm
14:38 49.3 °F /  9.6 °C 37.2 °F /  2.9 °C 30.39 in /  1029 hPa SSW 3.9 mph /  6.3 km/h 8.0 mph /  12.9 km/h 63 % 0.00 in /  0 mm
14:58 49.1 °F /  9.5 °C 37.8 °F /  3.2 °C 30.38 in /  1028.7 hPa SSW 5.8 mph /  9.3 km/h 11.5 mph /  18.5 km/h 65 % 0.00 in /  0 mm
15:03 49.1 °F /  9.5 °C 38.2 °F /  3.4 °C 30.38 in /  1028.7 hPa SSE 3.2 mph /  5.1 km/h 4.6 mph /  7.4 km/h 66 % 0.00 in /  0 mm
15:13 49.1 °F /  9.5 °C 38.6 °F /  3.7 °C 30.38 in /  1028.7 hPa SSE 0.7 mph /  1.1 km/h 3.5 mph /  5.6 km/h 67 % 0.00 in /  0 mm
15:24 49.0 °F /  9.4 °C 38.9 °F /  3.8 °C 30.38 in /  1028.7 hPa South 4.4 mph /  7.1 km/h 6.9 mph /  11.1 km/h 68 % 0.00 in /  0 mm
15:34 49.0 °F /  9.4 °C 39.3 °F /  4.1 °C 30.37 in /  1028.3 hPa Calm   1.2 mph /  1.9 km/h 69 % 0.00 in /  0 mm
15:39 49.0 °F /  9.4 °C 39.3 °F /  4.1 °C 30.37 in /  1028.3 hPa SE 0.3 mph /  0.5 km/h 3.5 mph /  5.6 km/h 69 % 0.00 in /  0 mm
15:49 49.0 °F /  9.4 °C 39.6 °F /  4.2 °C 30.37 in /  1028.3 hPa South 1.6 mph /  2.6 km/h 3.5 mph /  5.6 km/h 70 % 0.00 in /  0 mm
15:54 49.0 °F /  9.4 °C 39.6 °F /  4.2 °C 30.37 in /  1028.3 hPa Calm     70 % 0.00 in /  0 mm
15:59 49.0 °F /  9.4 °C 40.0 °F /  4.4 °C 30.37 in /  1028.3 hPa South 1.3 mph /  2.1 km/h 3.0 mph /  4.8 km/h 71 % 0.00 in /  0 mm
16:04 49.0 °F /  9.4 °C 40.0 °F /  4.4 °C 30.37 in /  1028.3 hPa Calm   2.3 mph /  3.7 km/h 71 % 0.00 in /  0 mm
16:09 49.0 °F /  9.4 °C 40.4 °F /  4.7 °C 30.37 in /  1028.3 hPa South 0.5 mph /  0.8 km/h 3.0 mph /  4.8 km/h 72 % 0.00 in /  0 mm
16:19 49.1 °F /  9.5 °C 40.8 °F /  4.9 °C 30.36 in /  1028 hPa SE 2.7 mph /  4.3 km/h 5.8 mph /  9.3 km/h 73 % 0.00 in /  0 mm
16:29 49.1 °F /  9.5 °C 40.8 °F /  4.9 °C 30.35 in /  1027.7 hPa SE 0.8 mph /  1.3 km/h 3.5 mph /  5.6 km/h 73 % 0.00 in /  0 mm
16:34 49.2 °F /  9.6 °C 41.3 °F /  5.2 °C 30.35 in /  1027.7 hPa SE 0.2 mph /  0.3 km/h 3.5 mph /  5.6 km/h 74 % 0.00 in /  0 mm
16:45 49.1 °F /  9.5 °C 40.8 °F /  4.9 °C 30.35 in /  1027.7 hPa Calm   1.0 mph /  1.6 km/h 73 % 0.00 in /  0 mm
16:55 49.1 °F /  9.5 °C 40.8 °F /  4.9 °C 30.35 in /  1027.7 hPa Calm     73 % 0.00 in /  0 mm
17:00 49.0 °F /  9.4 °C 41.1 °F /  5.1 °C 30.35 in /  1027.7 hPa Calm     74 % 0.00 in /  0 mm
17:10 49.0 °F /  9.4 °C 41.4 °F /  5.2 °C 30.35 in /  1027.7 hPa SE 0.1 mph /  0.2 km/h 1.2 mph /  1.9 km/h 75 % 0.00 in /  0 mm
17:15 48.9 °F /  9.4 °C 41.3 °F /  5.2 °C 30.34 in /  1027.3 hPa Calm   1.2 mph /  1.9 km/h 75 % 0.00 in /  0 mm
17:20 48.8 °F /  9.3 °C 41.2 °F /  5.1 °C 30.34 in /  1027.3 hPa SE 0.4 mph /  0.6 km/h 2.3 mph /  3.7 km/h 75 % 0.00 in /  0 mm
17:25 48.8 °F /  9.3 °C 41.6 °F /  5.3 °C 30.34 in /  1027.3 hPa Calm   1.2 mph /  1.9 km/h 76 % 0.00 in /  0 mm
17:30 48.7 °F /  9.3 °C 41.5 °F /  5.3 °C 30.34 in /  1027.3 hPa SE 0.2 mph /  0.3 km/h 2.3 mph /  3.7 km/h 76 % 0.00 in /  0 mm
17:35 48.6 °F /  9.2 °C 42.0 °F /  5.6 °C 30.34 in /  1027.3 hPa SE 0.1 mph /  0.2 km/h 2.3 mph /  3.7 km/h 78 % 0.00 in /  0 mm
17:40 48.5 °F /  9.2 °C 42.0 °F /  5.6 °C 30.33 in /  1027 hPa SE 1.7 mph /  2.7 km/h 3.5 mph /  5.6 km/h 78 % 0.00 in /  0 mm
17:45 48.4 °F /  9.1 °C 42.2 °F /  5.7 °C 30.34 in /  1027.3 hPa SE 1.0 mph /  1.6 km/h 3.0 mph /  4.8 km/h 79 % 0.00 in /  0 mm
17:52 48.4 °F /  9.1 °C 42.5 °F /  5.8 °C 30.33 in /  1027 hPa SE 1.3 mph /  2.1 km/h 3.0 mph /  4.8 km/h 80 % 0.00 in /  0 mm
17:57 48.3 °F /  9.1 °C 42.7 °F /  5.9 °C 30.33 in /  1027 hPa SE 0.5 mph /  0.8 km/h 2.0 mph /  3.2 km/h 81 % 0.00 in /  0 mm
18:02 48.3 °F /  9.1 °C 43.1 °F /  6.2 °C 30.34 in /  1027.3 hPa SE 0.4 mph /  0.6 km/h 1.2 mph /  1.9 km/h 82 % 0.00 in /  0 mm
18:07 48.3 °F /  9.1 °C 43.1 °F /  6.2 °C 30.33 in /  1027 hPa SE 0.1 mph /  0.2 km/h 2.3 mph /  3.7 km/h 82 % 0.00 in /  0 mm
18:12 48.2 °F /  9 °C 43.0 °F /  6.1 °C 30.33 in /  1027 hPa SE 0.2 mph /  0.3 km/h 1.2 mph /  1.9 km/h 82 % 0.00 in /  0 mm
18:28 48.2 °F /  9 °C 43.9 °F /  6.6 °C 30.32 in /  1026.6 hPa SE 0.2 mph /  0.3 km/h 2.3 mph /  3.7 km/h 85 % 0.00 in /  0 mm
18:33 48.1 °F /  8.9 °C 44.1 °F /  6.7 °C 30.32 in /  1026.6 hPa South 2.4 mph /  3.9 km/h 3.5 mph /  5.6 km/h 86 % 0.00 in /  0 mm
18:38 48.3 °F /  9.1 °C 44.6 °F /  7 °C 30.32 in /  1026.6 hPa SSW 1.6 mph /  2.6 km/h 3.5 mph /  5.6 km/h 87 % 0.00 in /  0 mm
18:43 48.4 °F /  9.1 °C 45.0 °F /  7.2 °C 30.32 in /  1026.6 hPa SSW 1.7 mph /  2.7 km/h 3.5 mph /  5.6 km/h 88 % 0.00 in /  0 mm
18:48 48.5 °F /  9.2 °C 45.1 °F /  7.3 °C 30.32 in /  1026.6 hPa SSW 0.4 mph /  0.6 km/h 2.0 mph /  3.2 km/h 88 % 0.00 in /  0 mm
18:53 48.5 °F /  9.2 °C 45.1 °F /  7.3 °C 30.31 in /  1026.3 hPa SSW 1.4 mph /  2.3 km/h 3.5 mph /  5.6 km/h 88 % 0.00 in /  0 mm
18:58 48.7 °F /  9.3 °C 45.6 °F /  7.6 °C 30.31 in /  1026.3 hPa SSW 1.0 mph /  1.6 km/h 3.5 mph /  5.6 km/h 89 % 0.00 in /  0 mm
19:03 48.7 °F /  9.3 °C 45.6 °F /  7.6 °C 30.31 in /  1026.3 hPa SSW 2.9 mph /  4.7 km/h 3.5 mph /  5.6 km/h 89 % 0.00 in /  0 mm
19:08 48.8 °F /  9.3 °C 45.7 °F /  7.6 °C 30.31 in /  1026.3 hPa SSW 1.9 mph /  3.1 km/h 3.5 mph /  5.6 km/h 89 % 0.00 in /  0 mm
19:13 48.9 °F /  9.4 °C 45.8 °F /  7.7 °C 30.31 in /  1026.3 hPa SSW 3.1 mph /  5 km/h 6.9 mph /  11.1 km/h 89 % 0.00 in /  0 mm
19:18 49.1 °F /  9.5 °C 46.0 °F /  7.8 °C 30.31 in /  1026.3 hPa South 1.0 mph /  1.6 km/h 2.3 mph /  3.7 km/h 89 % 0.00 in /  0 mm
19:23 49.1 °F /  9.5 °C 46.0 °F /  7.8 °C 30.30 in /  1026 hPa SSW 2.2 mph /  3.5 km/h 5.8 mph /  9.3 km/h 89 % 0.00 in /  0 mm
19:28 49.2 °F /  9.6 °C 46.1 °F /  7.8 °C 30.30 in /  1026 hPa SSW 1.6 mph /  2.6 km/h 3.5 mph /  5.6 km/h 89 % 0.00 in /  0 mm
19:33 49.3 °F /  9.6 °C 46.2 °F /  7.9 °C 30.31 in /  1026.3 hPa SSW 2.2 mph /  3.5 km/h 7.0 mph /  11.3 km/h 89 % 0.00 in /  0 mm
19:38 49.4 °F /  9.7 °C 46.3 °F /  7.9 °C 30.31 in /  1026.3 hPa SSW 0.1 mph /  0.2 km/h 3.5 mph /  5.6 km/h 89 % 0.00 in /  0 mm
19:48 49.7 °F /  9.8 °C 46.3 °F /  7.9 °C 30.30 in /  1026 hPa SSW 2.0 mph /  3.2 km/h 3.5 mph /  5.6 km/h 88 % 0.00 in /  0 mm
19:53 49.8 °F /  9.9 °C 46.7 °F /  8.2 °C 30.30 in /  1026 hPa SSW 4.0 mph /  6.4 km/h 5.8 mph /  9.3 km/h 89 % 0.00 in /  0 mm
19:58 49.9 °F /  9.9 °C 46.5 °F /  8.1 °C 30.29 in /  1025.6 hPa South 4.0 mph /  6.4 km/h 6.0 mph /  9.7 km/h 88 % 0.00 in /  0 mm
20:03 50.1 °F /  10.1 °C 46.7 °F /  8.2 °C 30.29 in /  1025.6 hPa SW 3.0 mph /  4.8 km/h 6.0 mph /  9.7 km/h 88 % 0.00 in /  0 mm
20:08 50.1 °F /  10.1 °C 46.7 °F /  8.2 °C 30.29 in /  1025.6 hPa SSW 2.6 mph /  4.2 km/h 3.5 mph /  5.6 km/h 88 % 0.00 in /  0 mm
20:13 50.2 °F /  10.1 °C 46.8 °F /  8.2 °C 30.29 in /  1025.6 hPa SW 3.4 mph /  5.5 km/h 6.9 mph /  11.1 km/h 88 % 0.00 in /  0 mm
20:18 50.3 °F /  10.2 °C 46.9 °F /  8.3 °C 30.29 in /  1025.6 hPa SSW 3.6 mph /  5.8 km/h 5.0 mph /  8 km/h 88 % 0.00 in /  0 mm
20:28 50.4 °F /  10.2 °C 46.7 °F /  8.2 °C 30.29 in /  1025.6 hPa South 2.1 mph /  3.4 km/h 5.8 mph /  9.3 km/h 87 % 0.00 in /  0 mm
20:33 50.5 °F /  10.3 °C 47.1 °F /  8.4 °C 30.28 in /  1025.3 hPa SSW 1.3 mph /  2.1 km/h 3.5 mph /  5.6 km/h 88 % 0.00 in /  0 mm
20:38 50.5 °F /  10.3 °C 47.1 °F /  8.4 °C 30.28 in /  1025.3 hPa South 3.1 mph /  5 km/h 6.0 mph /  9.7 km/h 88 % 0.00 in /  0 mm
20:53 50.7 °F /  10.4 °C 47.3 °F /  8.5 °C 30.28 in /  1025.3 hPa SSW 2.5 mph /  4 km/h 8.1 mph /  13 km/h 88 % 0.00 in /  0 mm
20:58 50.8 °F /  10.4 °C 47.4 °F /  8.6 °C 30.28 in /  1025.3 hPa SSW 3.0 mph /  4.8 km/h 8.1 mph /  13 km/h 88 % 0.00 in /  0 mm
21:03 50.8 °F /  10.4 °C 47.4 °F /  8.6 °C 30.28 in /  1025.3 hPa SSW 1.5 mph /  2.4 km/h 3.5 mph /  5.6 km/h 88 % 0.00 in /  0 mm
21:08 50.8 °F /  10.4 °C 47.4 °F /  8.6 °C 30.28 in /  1025.3 hPa SSW 2.1 mph /  3.4 km/h 4.6 mph /  7.4 km/h 88 % 0.00 in /  0 mm
21:18 50.8 °F /  10.4 °C 47.4 °F /  8.6 °C 30.28 in /  1025.3 hPa SSW 3.6 mph /  5.8 km/h 4.0 mph /  6.4 km/h 88 % 0.00 in /  0 mm
21:24 50.7 °F /  10.4 °C 47.3 °F /  8.5 °C 30.27 in /  1024.9 hPa SSW 1.4 mph /  2.3 km/h 3.5 mph /  5.6 km/h 88 % 0.00 in /  0 mm
21:29 50.7 °F /  10.4 °C 47.3 °F /  8.5 °C 30.28 in /  1025.3 hPa SSW 2.9 mph /  4.7 km/h 5.8 mph /  9.3 km/h 88 % 0.00 in /  0 mm
21:34 50.6 °F /  10.3 °C 47.5 °F /  8.6 °C 30.27 in /  1024.9 hPa South 2.1 mph /  3.4 km/h 5.0 mph /  8 km/h 89 % 0.00 in /  0 mm
21:39 50.6 °F /  10.3 °C 47.5 °F /  8.6 °C 30.27 in /  1024.9 hPa South 3.1 mph /  5 km/h 4.6 mph /  7.4 km/h 89 % 0.00 in /  0 mm
21:44 50.6 °F /  10.3 °C 47.5 °F /  8.6 °C 30.27 in /  1024.9 hPa SSW 2.4 mph /  3.9 km/h 5.0 mph /  8 km/h 89 % 0.00 in /  0 mm
21:49 50.5 °F /  10.3 °C 47.4 °F /  8.6 °C 30.27 in /  1024.9 hPa SSW 0.4 mph /  0.6 km/h 3.5 mph /  5.6 km/h 89 % 0.00 in /  0 mm
21:54 50.5 °F /  10.3 °C 47.4 °F /  8.6 °C 30.26 in /  1024.6 hPa SSW 2.7 mph /  4.3 km/h 4.6 mph /  7.4 km/h 89 % 0.00 in /  0 mm
21:59 50.5 °F /  10.3 °C 47.4 °F /  8.6 °C 30.26 in /  1024.6 hPa South 1.3 mph /  2.1 km/h 3.5 mph /  5.6 km/h 89 % 0.00 in /  0 mm
22:04 50.5 °F /  10.3 °C 47.4 °F /  8.6 °C 30.25 in /  1024.3 hPa SSW 4.5 mph /  7.2 km/h 6.0 mph /  9.7 km/h 89 % 0.00 in /  0 mm
22:14 50.5 °F /  10.3 °C 47.4 °F /  8.6 °C 30.25 in /  1024.3 hPa SSE 3.2 mph /  5.1 km/h 5.8 mph /  9.3 km/h 89 % 0.00 in /  0 mm
22:20 50.5 °F /  10.3 °C 47.4 °F /  8.6 °C 30.25 in /  1024.3 hPa SSW 4.9 mph /  7.9 km/h 8.1 mph /  13 km/h 89 % 0.00 in /  0 mm
22:21 50.5 °F /  10.3 °C 47.4 °F /  8.6 °C 30.25 in /  1024.3 hPa SSW 3.2 mph /  5.1 km/h 5.0 mph /  8 km/h 89 % 0.00 in /  0 mm
22:23 50.5 °F /  10.3 °C 47.4 °F /  8.6 °C 30.03 in /  1016.8 hPa SSW 2.5 mph /  4 km/h 3.5 mph /  5.6 km/h 89 % 0.00 in /  0 mm
22:28 50.5 °F /  10.3 °C 47.4 °F /  8.6 °C 30.02 in /  1016.5 hPa SSW 3.1 mph /  5 km/h 5.8 mph /  9.3 km/h 89 % 0.00 in /  0 mm
22:29 50.5 °F /  10.3 °C 47.4 °F /  8.6 °C 30.24 in /  1023.9 hPa South 2.4 mph /  3.9 km/h 4.6 mph /  7.4 km/h 89 % 0.00 in /  0 mm
22:32 50.5 °F /  10.3 °C 47.4 °F /  8.6 °C 30.24 in /  1023.9 hPa SSW 3.0 mph /  4.8 km/h 6.0 mph /  9.7 km/h 89 % 0.00 in /  0 mm
22:37 50.5 °F /  10.3 °C 47.4 °F /  8.6 °C 30.24 in /  1023.9 hPa SSW 4.4 mph /  7.1 km/h 6.9 mph /  11.1 km/h 89 % 0.00 in /  0 mm
22:42 50.5 °F /  10.3 °C 47.4 °F /  8.6 °C 30.24 in /  1023.9 hPa SW 2.4 mph /  3.9 km/h 4.6 mph /  7.4 km/h 89 % 0.00 in /  0 mm
22:47 50.4 °F /  10.2 °C 47.3 °F /  8.5 °C 30.24 in /  1023.9 hPa South 4.9 mph /  7.9 km/h 8.1 mph /  13 km/h 89 % 0.00 in /  0 mm
22:52 50.4 °F /  10.2 °C 47.3 °F /  8.5 °C 30.24 in /  1023.9 hPa WSW 3.3 mph /  5.3 km/h 5.8 mph /  9.3 km/h 89 % 0.00 in /  0 mm
23:12 50.3 °F /  10.2 °C 47.5 °F /  8.6 °C 30.23 in /  1023.6 hPa SSW 3.2 mph /  5.1 km/h 5.8 mph /  9.3 km/h 90 % 0.00 in /  0 mm
23:17 50.2 °F /  10.1 °C 47.4 °F /  8.6 °C 30.22 in /  1023.2 hPa SSW 3.8 mph /  6.1 km/h 6.9 mph /  11.1 km/h 90 % 0.00 in /  0 mm
23:18 50.2 °F /  10.1 °C 47.4 °F /  8.6 °C 30.22 in /  1023.2 hPa SSW 3.1 mph /  5 km/h 3.5 mph /  5.6 km/h 90 % 0.00 in /  0 mm
23:23 50.2 °F /  10.1 °C 47.4 °F /  8.6 °C 30.22 in /  1023.2 hPa SW 2.8 mph /  4.5 km/h 6.9 mph /  11.1 km/h 90 % 0.00 in /  0 mm
23:33 50.1 °F /  10.1 °C 47.3 °F /  8.5 °C 30.21 in /  1022.9 hPa SSW 3.4 mph /  5.5 km/h 5.8 mph /  9.3 km/h 90 % 0.00 in /  0 mm
23:38 50.1 °F /  10.1 °C 47.6 °F /  8.7 °C 30.21 in /  1022.9 hPa SSW 4.2 mph /  6.8 km/h 5.8 mph /  9.3 km/h 91 % 0.00 in /  0 mm
23:43 50.2 °F /  10.1 °C 47.7 °F /  8.7 °C 30.20 in /  1022.6 hPa South 4.8 mph /  7.7 km/h 10.4 mph /  16.7 km/h 91 % 0.00 in /  0 mm
23:54 50.2 °F /  10.1 °C 47.7 °F /  8.7 °C 30.19 in /  1022.2 hPa South 3.9 mph /  6.3 km/h 6.9 mph /  11.1 km/h 91 % 0.00 in /  0 mm
23:59 50.2 °F /  10.1 °C 47.7 °F /  8.7 °C 30.19 in /  1022.2 hPa SSW 3.7 mph /  6 km/h 9.2 mph /  14.8 km/h 91 % 0.00 in /  0 mm
Crab Meadow Weather
Compliments of Weather Underground - 2.75 mb

Script developed by  Jim McMurry - jmcmurry@mwt.net Adapted for the template by  Wim van der Kuil - Leuven-Template.eu

Recycling: If every American home replaced just one light bulb with an ENERGY STAR qualified bulb, we would save enough energy to light more than 3 million homes for a year, more than $600 million in annual energy costs, and prevent greenhouse gases equivalent to the emissions of more than 800,000 cars.